Updated09/07/2020 16:00 
 

GeoURL
free counters
Scottish Weather Network UK Weather Network Cumulus Top Weather Sites

Peebles Weather - UV Forecast

Raw Data, Raw Data Expanded

Ignore low humidity and Dew Point values. Something wrong with the sensor.
Daytime temperatures are in direct sunlight so may be higher than official air temperature values.
As with any other website, we log your IP address and browser type in the server logs for diagnostic reasons. Cookies are used to record visit time and gauges preferences. No personal information is stored or processed.

All times are in local time (GMT, or BST in summer) unless specified.

2020/07/09 14:50 EGPH 091450Z 04008KT 9999 SCT044 17/11 Q1013
21.1°C 0.0 mm 0.0 mm 0.0 mm 2.7 mph 4.5 mph 1009.2 hPa 51% X-Ray Solar Flare Level
Planetary K-Index
Planetary K-Index History
Station Warn Rain Snow Flood Wind Ltng Heat Cold Glob Moon Temp Rain 1h Rain Thu Rain 24h Wind 10m Gust Pressure Hum Proton Levels

m Waning Gibbous Comfortable F1-SE F: A: Kp:0 SSN:0

UV Index Forecast

 

Thu Fri Sat Sun Mon Tue
UV Index UV Index UV Index UV Index UV Index UV Index
5.7 5.6 5.8 6.3 6.3 5.9
 High   High   High   High   High   High 

UV forecast courtesy of and Copyright © KNMI/ESA (http://www.temis.nl/). Used with permission.

UV Index Legend
UV Index Scale

 

XHTML 1.1 | CSS